Location: Songkhla
(7.2000°N, 100.6000°E)
Time: 19:23:24
(UTC+07:00)

ISS - Pass Details

Date: 24 April 2026
Orbit: 414 x 424 km, 51.6° (Epoch: 19 May)

Event Time Altitude Azimuth Distance (km) Brightness Sun altitude
Rises 12:29:56 0° 291° (WNW) 2,368 0.1 83.3°
Maximum altitude 12:34:27 12° 235° (SW) 1,410 -0.9 82.7°
Drops below altitude 10° 12:35:41 10° 214° (SSW) 1,504 -0.8 82.5°
Sets 12:38:58 0° 179° (S) 2,368 0.0 82.0°
